Regional Weather Roundup
Issued by NWS Lake Charles, LA

Home | Current Version | Previous Version | Text Only | Print | Product List | Glossary On
Versions: 1 2 3 4 5 6 7 8 9 10 11 12 13 14 15 16 17 18 19 20 21 22 23 24 25 26 27
000
ASUS44 KLCH 280310
RWRLCH
REGIONAL WEATHER ROUNDUP
NATIONAL WEATHER SERVICE LAKE CHARLES LA
1000 PM CDT SAT MAY 27 2017

Note: "fair" indicates few or no clouds below 12,000 feet with no
significant weather and/or obstructions to visibility.


ACROSS SOUTHEAST TEXAS

CITY           SKY/WX    TMP DP  RH WIND       PRES   REMARKS
BEAUMONT       MOCLDY    80  76  87 S10       29.89F
BEAUMONT CITY  MOCLDY    79  75  89 MISG      29.90S
ORANGE         CLOUDY    79  78  94 S9        29.91F
JASPER           N/A     79  75  88 S5        29.90S
$$

ACROSS CENTRAL LOUISIANA

CITY           SKY/WX    TMP DP  RH WIND       PRES   REMARKS
LEESVILLE      CLEAR     78  73  86 S14       29.88F
FULLERTON      FAIR      78  74  87 CALM      29.87F
ALEXANDRIA INT CLEAR     79  74  84 S10       29.87S
ESLER FIELD    PTCLDY    79  75  87 S8        29.89S
DERIDDER       FAIR      78  76  95 S8        29.92S
OAKDALE        PTCLDY    78  75  90 S5        29.92R
OPELOUSAS      CLOUDY    78  74  88 S5        29.93S
$$

ACROSS SOUTHWEST AND SOUTH CENTRAL LOUISIANA

CITY           SKY/WX    TMP DP  RH WIND       PRES   REMARKS
SULPHUR        CLOUDY    80  78  94 S14G20    29.91F
LAKE CHARLES   MOCLDY    80  77  90 S10       29.90F
CHENNAULT INT  CLOUDY    79  77  94 S9        29.91F
CAMERON PHI    CLOUDY    81  79  94 S13G20    29.91S FOG
DEQUINCY       CLOUDY    77  75  92 SE5       29.91S
JENNINGS       FAIR      78  76  91 MISG      29.92F
LAFAYETTE      MOCLDY    79  78  97 S8        29.93S
NEW IBERIA     CLOUDY    81  76  84 S12       29.94F
ABBEVILLE      LGT RAIN  79  79 100 S8        29.94S
PATTERSON      CLOUDY    80  77  90 S9        29.96S
SALT POINT       N/A     80  77  90 VRB3      29.95R
$$

SELECTED SITES ACROSS THE REGION

CITY           SKY/WX    TMP DP  RH WIND       PRES   REMARKS
HOUSTON BUSH   MOCLDY    81  73  76 S9        29.87S
HOUSTON HOBBY  CLOUDY    79  76  90 S10       29.88S
GALVESTON      CLOUDY    82  79  90 SE14      29.90S
COLLEGE STAT   PTCLDY    81  73  76 S12       29.85R
CONROE         CLEAR     79  73  82 S9        29.87R
HUNTSVILLE     CLEAR     82  72  71 S7        29.86R
LUFKIN         CLEAR     78  73  84 S8        29.85R
SHREVEPORT     CLEAR     79  75  87 S7        29.82R
MONROE         CLEAR     81  73  76 S9        29.84F
NATCHEZ MS     CLEAR     79  73  82 S12       29.91F
BATON ROUGE    MOCLDY    80  74  81 S12       29.94S
N.O. INTL ARPT MOCLDY    80  77  90 S12       29.95F
SLIDELL        CLOUDY    81  76  84 S13G18    29.95S
$$

MARINE REPORTS

STATION/POSITION TIME  SKY/WX   TEMP    WIND        PRES    VSBY
                                AIR SEA DIR/SP/G
                 (UTC)          (F)     (DEG/KT/KT) (MB)    (MI)
BUOY 30 S HIGH I 0150            80 80  140/ 14/ 16 1012.2
WVE H/P(F/S)=  3/ 6

SEA RIM ST PARK  0200            80     150/ 10/ 13 1013.2F
PORT ARTHUR      0248            80 80  150/  6/ 11 1012.7F
SABINE PASS N    0248            80 83  160/ 12/ 16 1014.0F
TEXAS POINT      NOT AVBL
CALCASIEU PASS   0248            80 81  170/ 11/ 15   N/A
LK CHARLES BEACH 0248            80 77              1013.2F
MARSH ISLAND     0200            82                   N/A
FRESH WATER LOCK 0248            80 81  140/ 13/ 16 1013.7F
AMERADA PASS     0248            79 77  150/  6/ 11 1014.2R
$$




USA.gov is the U.S. government's official web portal to all federal, state and local government web resources and services.